When you browse on this site, cookies collect data to enhance your experience and personalize the content and advertising you see.
Visit our Privacy Policy to learn more. By continuing to use the site, you agree to this use of cookies and data.
  • En España
  • Lista de países
  • Para 7 días
  • Temperatura del agua
  • El tiempo en el mapa
  • Informadores
  • user-avatar
    Iniciar sesión

    Tiempo cada hora Atyrau

    Hoy, 22 Noviembre, Viernes

    Tiempo Temperatura Precipitaciones Viento Presión Humedad
    00:00 -14°C° 0 mm 3 mps 785 mmHg 57%
    01:00 -15°C° 0 mm 4 mps 785 mmHg 58%
    02:00 -15°C° 0 mm 4 mps 785 mmHg 59%
    03:00 -15°C° 0 mm 4 mps 785 mmHg 61%
    04:00 -14°C° 0 mm 3 mps 785 mmHg 61%
    05:00 -15°C° 0 mm 3 mps 785 mmHg 62%
    06:00 -15°C° 0 mm 3 mps 784 mmHg 62%
    07:00 -14°C° 0 mm 3 mps 785 mmHg 58%
    08:00 -14°C° 0 mm 4 mps 785 mmHg 54%
    09:00 -12°C° 0 mm 4 mps 785 mmHg 48%
    10:00 -11°C° 0 mm 4 mps 785 mmHg 44%
    11:00 -10°C° 0 mm 4 mps 785 mmHg 39%
    12:00 -9°C° 0 mm 4 mps 784 mmHg 35%
    13:00 -9°C° 0 mm 4 mps 784 mmHg 35%
    14:00 -8°C° 0 mm 3 mps 783 mmHg 34%
    15:00 -8°C° 0 mm 3 mps 783 mmHg 36%
    16:00 -9°C° 0 mm 3 mps 783 mmHg 39%
    17:00 -9°C° 0 mm 3 mps 783 mmHg 42%
    18:00 -9°C° 0 mm 2 mps 783 mmHg 45%
    19:00 -9°C° 0 mm 2 mps 783 mmHg 46%
    20:00 -9°C° 0 mm 2 mps 783 mmHg 47%
    21:00 -10°C° 0 mm 2 mps 783 mmHg 48%
    22:00 -10°C° 0 mm 2 mps 783 mmHg 48%
    23:00 -10°C° 0 mm 2 mps 783 mmHg 48%

    Mañana, 23 Noviembre, Sábado

    Tiempo Temperatura Precipitaciones Viento Presión Humedad
    00:00 -10°C° 0 mm 2 mps 782 mmHg 48%
    01:00 -10°C° 0 mm 2 mps 782 mmHg 47%
    02:00 -10°C° 0 mm 2 mps 782 mmHg 46%
    03:00 -10°C° 0 mm 2 mps 782 mmHg 45%
    04:00 -10°C° 0 mm 2 mps 781 mmHg 45%
    05:00 -10°C° 0 mm 2 mps 781 mmHg 44%
    06:00 -10°C° 0 mm 2 mps 781 mmHg 44%
    07:00 -9°C° 0 mm 2 mps 781 mmHg 41%
    08:00 -8°C° 0 mm 2 mps 781 mmHg 38%
    09:00 -7°C° 0 mm 2 mps 781 mmHg 34%
    10:00 -4°C° 0 mm 1 mps 781 mmHg 32%
    11:00 -3°C° 0 mm 1 mps 781 mmHg 30%
    12:00 -2°C° 0 mm 1 mps 780 mmHg 28%
    13:00 -2°C° 0 mm 1 mps 780 mmHg 29%
    14:00 -4°C° 0 mm 2 mps 780 mmHg 29%
    15:00 -3°C° 0 mm 2 mps 780 mmHg 30%
    16:00 -4°C° 0 mm 2 mps 780 mmHg 33%
    17:00 -5°C° 0 mm 2 mps 780 mmHg 36%
    18:00 -6°C° 0 mm 2 mps 780 mmHg 40%
    19:00 -6°C° 0 mm 2 mps 780 mmHg 43%
    20:00 -6°C° 0 mm 2 mps 780 mmHg 46%
    21:00 -6°C° 0 mm 2 mps 780 mmHg 49%
    22:00 -7°C° 0 mm 2 mps 780 mmHg 54%
    23:00 -7°C° 0 mm 2 mps 780 mmHg 60%

    Pasado mañana, 24 Noviembre, Domingo

    Tiempo Temperatura Precipitaciones Viento Presión Humedad
    00:00 -7°C° 0 mm 2 mps 779 mmHg 66%
    01:00 -7°C° 0 mm 2 mps 779 mmHg 70%
    02:00 -7°C° 0 mm 2 mps 779 mmHg 74%
    03:00 -7°C° 0 mm 2 mps 779 mmHg 78%
    04:00 -7°C° 0 mm 2 mps 779 mmHg 80%
    05:00 -8°C° 0 mm 2 mps 779 mmHg 81%
    06:00 -8°C° 0 mm 2 mps 779 mmHg 83%
    07:00 -7°C° 0 mm 2 mps 779 mmHg 80%
    08:00 -6°C° 0 mm 2 mps 779 mmHg 76%
    09:00 -6°C° 0 mm 3 mps 779 mmHg 72%
    10:00 -5°C° 0 mm 3 mps 779 mmHg 65%
    11:00 -4°C° 0 mm 3 mps 779 mmHg 58%
    12:00 -2°C° 0 mm 3 mps 779 mmHg 51%
    13:00 -2°C° 0 mm 3 mps 778 mmHg 45%
    14:00 -2°C° 0 mm 3 mps 778 mmHg 39%
    15:00 -2°C° 0 mm 3 mps 778 mmHg 33%
    16:00 -4°C° 0 mm 3 mps 778 mmHg 34%
    17:00 -4°C° 0 mm 2 mps 778 mmHg 36%
    18:00 -5°C° 0 mm 2 mps 778 mmHg 37%
    19:00 -6°C° 0 mm 2 mps 778 mmHg 38%
    20:00 -6°C° 0 mm 2 mps 778 mmHg 40%
    21:00 -6°C° 0 mm 2 mps 778 mmHg 41%
    22:00 -7°C° 0 mm 2 mps 778 mmHg 44%
    23:00 -6°C° 0 mm 1 mps 778 mmHg 46%

    25 Noviembre, Lunes

    Tiempo Temperatura Precipitaciones Viento Presión Humedad
    00:00 -6°C° 0 mm 1 mps 778 mmHg 49%
    01:00 -7°C° 0 mm 1 mps 778 mmHg 50%
    02:00 -7°C° 0 mm 1 mps 777 mmHg 52%
    03:00 -7°C° 0 mm 1 mps 777 mmHg 53%
    04:00 -7°C° 0 mm 1 mps 777 mmHg 54%
    05:00 -7°C° 0 mm 1 mps 777 mmHg 56%
    06:00 -7°C° 0 mm 1 mps 777 mmHg 57%
    07:00 -4°C° 0 mm 1 mps 777 mmHg 53%
    08:00 -3°C° 0 mm 1 mps 777 mmHg 49%
    09:00 -2°C° 0 mm 1 mps 778 mmHg 45%
    10:00 -1°C° 0 mm 1 mps 777 mmHg 43%
    11:00 0°C° 0 mm 1 mps 777 mmHg 40%
    12:00 +1°C° 0 mm 1 mps 777 mmHg 38%
    13:00 +1°C° 0 mm 1 mps 777 mmHg 39%
    14:00 +1°C° 0 mm 1 mps 777 mmHg 39%
    15:00 +1°C° 0 mm 1 mps 776 mmHg 40%
    16:00 0°C° 0 mm 1 mps 776 mmHg 44%
    17:00 -1°C° 0 mm 1 mps 776 mmHg 48%
    18:00 -4°C° 0 mm 2 mps 777 mmHg 53%
    19:00 -5°C° 0 mm 2 mps 777 mmHg 53%
    20:00 -5°C° 0 mm 2 mps 777 mmHg 54%
    21:00 -5°C° 0 mm 2 mps 777 mmHg 55%
    22:00 -5°C° 0 mm 2 mps 776 mmHg 55%
    23:00 -5°C° 0 mm 2 mps 776 mmHg 55%

    26 Noviembre, Martes

    Tiempo Temperatura Precipitaciones Viento Presión Humedad
    00:00 -5°C° 0 mm 2 mps 776 mmHg 56%
    01:00 -5°C° 0 mm 2 mps 776 mmHg 56%
    02:00 -7°C° 0 mm 3 mps 776 mmHg 57%
    03:00 -7°C° 0 mm 3 mps 776 mmHg 58%
    04:00 -7°C° 0 mm 3 mps 776 mmHg 58%
    05:00 -7°C° 0 mm 3 mps 775 mmHg 58%
    06:00 -7°C° 0 mm 3 mps 775 mmHg 58%
    07:00 -6°C° 0 mm 3 mps 775 mmHg 55%
    08:00 -5°C° 0 mm 4 mps 776 mmHg 51%
    09:00 -4°C° 0 mm 4 mps 776 mmHg 48%
    10:00 -3°C° 0 mm 4 mps 776 mmHg 44%
    11:00 -2°C° 0 mm 4 mps 776 mmHg 40%
    12:00 -1°C° 0 mm 4 mps 775 mmHg 36%
    13:00 -1°C° 0 mm 4 mps 775 mmHg 37%
    14:00 0°C° 0 mm 3 mps 775 mmHg 38%
    15:00 0°C° 0 mm 3 mps 775 mmHg 39%
    16:00 -2°C° 0 mm 4 mps 775 mmHg 42%
    17:00 -3°C° 0 mm 4 mps 775 mmHg 45%
    18:00 -4°C° 0 mm 4 mps 775 mmHg 48%
    19:00 -5°C° 0 mm 4 mps 775 mmHg 51%
    20:00 -5°C° 0 mm 4 mps 775 mmHg 53%
    21:00 -5°C° 0 mm 4 mps 775 mmHg 56%
    22:00 -5°C° 0 mm 4 mps 775 mmHg 60%
    23:00 -5°C° 0 mm 4 mps 775 mmHg 64%

    27 Noviembre, Miércoles

    Tiempo Temperatura Precipitaciones Viento Presión Humedad
    00:00 -6°C° 0 mm 5 mps 774 mmHg 68%
    01:00 -6°C° 0 mm 5 mps 774 mmHg 68%
    02:00 -6°C° 0 mm 5 mps 774 mmHg 69%
    03:00 -6°C° 0 mm 5 mps 774 mmHg 69%
    04:00 -7°C° 0 mm 5 mps 774 mmHg 67%
    05:00 -7°C° 0 mm 5 mps 773 mmHg 65%
    06:00 -7°C° 0 mm 5 mps 773 mmHg 63%
    07:00 -5°C° 0 mm 6 mps 773 mmHg 58%
    08:00 -4°C° 0 mm 7 mps 774 mmHg 53%
    09:00 -2°C° 0 mm 7 mps 774 mmHg 48%
    10:00 -1°C° 0 mm 7 mps 774 mmHg 45%
    11:00 0°C° 0 mm 8 mps 773 mmHg 41%
    12:00 +1°C° 0 mm 8 mps 773 mmHg 38%
    13:00 0°C° 0 mm 8 mps 773 mmHg 38%
    14:00 0°C° 0 mm 7 mps 773 mmHg 38%
    15:00 0°C° 0 mm 7 mps 773 mmHg 38%
    16:00 -1°C° 0 mm 7 mps 773 mmHg 42%
    17:00 -2°C° 0 mm 7 mps 773 mmHg 46%
    18:00 -3°C° 0 mm 7 mps 773 mmHg 50%
    19:00 -3°C° 0 mm 7 mps 773 mmHg 54%
    20:00 -3°C° 0 mm 7 mps 772 mmHg 59%
    21:00 -3°C° 0 mm 7 mps 772 mmHg 63%
    22:00 -3°C° 0 mm 7 mps 772 mmHg 67%
    23:00 -3°C° 0 mm 7 mps 772 mmHg 70%
    Mostrar más